This demonstration page uses our WeatherBlox Daily Observations layout. Learn more.

Hourly Observations for October 6, 2020

Temp ( °F °C ) Dew Point ( °F °C ) Humidity (%) Winds ( mph kmh ) Pressure ( in mb ) Visibility ( mi km ) Precip ( " mm )
12:53 am 00:53 Clear 43 6.1 33 0.6 68 68 N 8 13 30.08 1019 10 16.0934 0 0
1:53 am 01:53 Clear 40 4.4 33 0.6 77 77 NW 5 7 30.07 1018 10 16.0934 0 0
2:53 am 02:53 Clear 39 3.9 33 0.6 79 79 NNE 5 7 30.06 1018 10 16.0934 0 0
3:53 am 03:53 Clear 39 3.9 33 0.6 79 79 undefined N/A 30.05 1018 10 16.0934 0 0
4:53 am 04:53 Clear 39 3.9 33 0.6 79 79 Calm 30.04 1017 10 16.0934 0 0
5:53 am 05:53 Clear 36 2.2 31 -0.6 82 82 Calm 30.07 1018 10 16.0934 0 0
6:53 am 06:53 Clear 36 2.2 32 0 86 86 NNW 6 9 30.1 1019 10 16.0934 0 0
7:53 am 07:53 Sunny 40 4.4 33 0.6 77 77 WNW 7 11 30.12 1020 9 14.48406 0 0
8:53 am 08:53 Sunny 51 10.6 35 1.7 54 54 NW 10 17 30.09 1019 7 11.26538 0 0
9:53 am 09:53 Sunny 61 16.1 35 1.7 38 38 WNW 7 11 30.08 1019 9 14.48406 0 0
10:53 am 10:53 Sunny 70 21.1 31 -0.6 23 23 WNW 10 17 30.06 1018 10 16.0934 0 0
11:53 am 11:53 Sunny 76 24.4 31 -0.6 19 19 W 9 15 30.04 1017 10 16.0934 0 0
12:53 pm 12:53 Sunny 81 27.2 28 -2.2 14 14 W 12 19 30.01 1016 10 16.0934 0 0
1:53 pm 13:53 Sunny 85 29.4 28 -2.2 13 13 WNW 12 19 29.98 1015 10 16.0934 0 0
2:53 pm 14:53 Sunny 86 30 25 -3.9 11 11 WNW 9 15 29.95 1014 10 16.0934 0 0
3:53 pm 15:53 Sunny 86 30 26 -3.3 11 11 WNW 8 13 29.94 1014 10 16.0934 0 0
4:53 pm 16:53 Sunny 86 30 27 -2.8 12 12 undefined N/A 29.93 1013 10 16.0934 0 0
5:53 pm 17:53 Sunny 82 27.8 30 -1.1 15 15 Calm 29.94 1014 10 16.0934 0 0
6:53 pm 18:53 Clear 71 21.7 29 -1.7 21 21 Calm 29.96 1015 10 16.0934 0 0
7:53 pm 19:53 Clear 65 18.3 32 0 29 29 SE 3 6 29.98 1015 9 14.48406 0 0
8:53 pm 20:53 Clear 57 13.9 31 -0.6 37 37 E 7 11 29.98 1015 10 16.0934 0 0
9:53 pm 21:53 Clear 56 13.3 31 -0.6 39 39 Calm 29.96 1015 10 16.0934 0 0
10:53 pm 22:53 Clear 51 10.6 30 -1.1 44 44 VRB 3 6 29.95 1014 10 16.0934 0 0
11:53 pm 23:53 Clear 49 9.4 31 -0.6 50 50 N 3 6 29.94 1014 10 16.0934 0 0

Powered by AerisWeather